Location: Ford County Road and Bridge Department
(37.7686°N, 99.9762°W)
Time: 15:38:51
(UTC+00:00)

Cosmos 1959 Rocket - Pass Details

Date: 18 January 2020
Orbit: 947 x 997 km, 83.0° (Epoch: 24 February)

Event Time Altitude Azimuth Distance (km) Brightness Sun altitude
Rises 01:47:27 0° 185° (S) 3,661 7.7 -23.6°
Reaches altitude 10° 01:49:58 10° 185° (S) 2,710 7.0 -24.0°
Maximum altitude 01:56:11 90° 186° (S) 970 4.4 -25.3°
Drops below altitude 10° 02:02:22 10° 7° (N) 2,694 6.7 -26.5°
Enters shadow 02:02:56 - 7° (N) 2,908 6.8 -26.6°
